Showing default

KSM1-B, 46914

Orbit data source: Space-Track

KSM1-B, 46914 is a payload satellite owned by Kleos Space (LU) in LEO that was launched on Sat, 07 Nov 2020 UTC via a PSLV-DL launch vehicle from the Sirharikota (SRI). Payload-class satellites include a variety of spacecraft equipped with specific instruments for various scientific and technological missions. These include communications satellites like Starlink; space stations such as the ISS; scientific satellites like the Hubble; Earth observation satellites from companies like Planet Labs, Umbra, and HawkEye 360; GPS; miniature CubeSats for education and research; and military/defense satellites.

Loading next visibility...
Identifier
46914, 2020-081K
Orbit
LEO
Last TLE update
2 hours ago
Origin
Manufacturer
GOMSpace
Mission
Operational Commercial Sigint
Bus & Motor
CUBESAT 6U, Unknown motor
Mass
~10 kg wet, ~10 kg dry
Launch date (UTC)
2020-11-07 (5 years ago)
Launch vehicle
PSLV-DL
Launch site
Sirharikota (SRI)
Object type
Payload
Rocket body
Debris
Shape & HBR
Box, Unknown HBR
Radar Cross Section
0.080 m², Small (<0.1 m²)

Expand to show TLE details & history

TLE from 2 hours ago
0 KSM1-B
1 46914U 20081K   25186.88612011  .00005235  00000-0  25607-3 0  9992
2 46914  36.9031  28.4951 0007581 257.2980 102.6919 15.17990834255659
Epoch: 2025-07-05T21:16Z
TLE epoch observation values (Epoch: 2025-07-05T21:16:00.777Z)
Latitude
-0.00003°
Longitude
145.37409°
Altitude
512.175 km
Speed
7.609 km/s
True Right ascension
01h 53m 58s
True Declination
0° 00' 00"
Sunlit
Object was in daylight at epoch
Visualization orbit readout
Latitude
26.27721°
Longitude
-174.24258°
Altitude
515.765 km
Speed
7.608 km/s
Apparent Right ascension
02h 11m 21s
Apparent Declination
-7° 07' 49"
Sunlit
Object is in daylight
Visualization observer readout
Local Sidereal Time
10:59:26
Azimuth
294.184° NW
Elevation
-36.095°
Doppler factor
1
Orbital elements
Apogee altitude
520.079 km
Perigee altitude
509.628 km
Semi-major axis
6,892.991 km
Eccentricity
0.00076
Inclination
36.9031°
RAAN
28.4951°
Arg. of periapsis
257.298°
True anomaly
Unknown
Mean anomaly
102.6919°
Eccentric anomaly
Unknown
Mean motion
3.79255 °/min
Orbital period
94.92 mins
BSTAR
0.00025607
Loading maneuver chart data...
Loading SW <> Apogee altitude chart data...
Loading historical data...
Loading historical data...
Loading historical data...
Loading historical data...
Loading historical data...
Loading historical data...
Loading historical data...

KSM1-B Visibility forecast

Observer location: undefined°, undefined°

Span
Click to sort rows by Start time (UTC) header in descending order
Start Az.
Max El. time (UTC)
Max El. Az.
Max El.
End time (UTC)
End Az.
6 mins2025-07-06 18:04:09.419Z228.425° WSW2025-07-06 18:07:09.419Z146.83° SSE31.851°2025-07-06 18:10:09.419Z97.649° ESE
6 mins2025-07-06 19:44:09.419Z252.551° W2025-07-06 19:46:09.419Z204.401° SW38.35°2025-07-06 19:50:09.419Z105.532° ESE
5 mins2025-07-06 21:24:09.419Z248.126° W2025-07-06 21:26:09.419Z201.118° SSW27.852°2025-07-06 21:29:09.419Z139.135° SSE
|